Theta_e
308 307 308 308 308 308 307 307 307 307 307 307 307 307 307 307 307 308 308 309 309 309 308 308 308 308 308 308 309 309 309 309 309 311 312 310 310 311 313 314 316 317 317 317 317 317 317 316 316 315 315 314 314 313 313 313 313 315 317 316 316 316 314 313 312 312 313 310 309 307 306 305 302 301 298 297 297 297 296 296 296 297 297 297 297 297 298 298
308 307 307 307 308 308 307 307 307 307 307 308 308 308 307 307 308 308 308 309 308 308 308 309 309 308 309 309 309 309 309 309 309 310 310 310 310 311 311 312 313 315 315 315 315 315 315 315 314 314 314 313 312 313 313 312 312 314 315 315 313 313 310 309 311 311 312 310 308 305 304 304 303 301 300 299 298 298 299 298 297 298 297 297 297 298 298 298
308 307 307 308 308 308 308 308 308 308 308 308 309 308 308 307 308 308 308 308 308 308 308 309 310 309 309 309 309 309 310 310 309 309 309 310 310 310 311 310 311 314 314 314 314 314 314 314 313 313 313 312 311 311 311 311 312 312 313 314 310 310 308 307 309 310 309 308 306 304 303 302 301 300 299 299 299 299 300 299 298 299 298 297 297 298 298 297
308 308 308 308 309 308 308 308 308 308 308 308 308 309 308 307 308 308 308 308 308 308 308 309 310 310 310 309 310 309 310 311 310 308 310 310 311 311 311 311 311 312 313 313 313 314 313 313 313 312 312 311 311 310 310 310 311 309 310 312 309 309 308 305 306 307 306 306 305 304 303 302 300 299 299 300 300 300 299 298 298 298 297 297 297 297 298 297
308 308 309 308 309 308 309 309 309 308 308 308 308 308 308 308 308 308 308 308 308 308 308 310 310 310 310 310 310 310 311 312 309 309 310 310 311 311 311 312 312 312 312 313 313 313 313 313 312 311 310 311 311 310 309 308 309 307 306 308 308 308 307 302 303 305 305 304 304 304 303 302 300 299 299 300 301 300 299 298 297 297 297 297 297 298 298 298
308 308 308 308 308 308 309 309 309 309 309 309 309 308 308 308 307 308 308 308 308 308 309 309 310 310 310 310 310 310 310 309 308 309 310 310 311 311 312 312 312 312 312 312 313 313 312 311 311 311 309 309 309 309 307 307 308 307 304 304 305 306 305 302 302 304 304 304 304 304 302 300 299 299 298 298 300 299 298 297 297 297 298 298 298 298 298 298
307 307 307 308 308 309 309 309 309 310 309 309 309 309 308 307 308 308 308 308 309 309 309 309 309 310 310 310 311 310 308 306 306 309 310 310 311 311 311 311 311 312 312 312 312 312 311 311 311 310 310 310 308 308 307 307 308 307 304 302 302 302 302 302 303 304 303 304 303 302 300 299 299 300 298 298 298 297 297 297 298 298 298 298 298 298 298 298
307 307 307 308 309 309 309 309 309 310 310 309 310 309 309 308 307 308 308 308 309 309 310 310 309 310 310 311 311 309 305 304 306 309 310 310 311 311 311 311 311 311 312 312 311 311 311 310 310 310 311 310 308 309 308 307 306 305 303 302 301 300 300 301 302 302 302 302 300 300 300 298 298 299 298 298 298 297 298 298 298 298 298 298 298 298 298 298
306 307 307 309 309 309 309 309 309 309 309 309 310 310 310 309 308 308 309 309 309 309 310 310 310 310 310 311 312 310 304 304 307 309 310 310 311 311 311 311 311 311 311 311 311 311 311 310 309 309 309 307 307 307 307 307 306 304 303 302 301 301 300 301 301 300 300 300 299 300 300 298 298 299 299 299 298 298 298 298 298 298 298 298 299 299 299 298
307 307 308 309 309 309 309 309 309 309 309 309 310 310 310 310 309 309 309 309 309 310 310 310 310 310 310 312 312 309 304 305 307 308 309 310 310 311 311 311 311 311 311 311 311 311 310 309 308 308 307 306 306 306 307 307 305 302 303 303 302 301 301 301 301 300 300 300 299 301 300 299 299 300 301 299 298 298 298 298 298 298 298 299 299 299 299 299
308 308 309 309 309 309 309 309 309 309 309 309 309 310 309 309 309 309 309 309 309 309 309 309 309 310 311 311 310 306 304 305 306 307 308 309 310 310 311 311 311 311 311 310 310 309 309 308 308 308 307 306 305 304 304 304 303 302 303 302 301 302 301 301 301 300 301 301 300 301 301 300 299 300 302 300 299 299 298 298 299 299 299 299 299 299 299 299
308 309 309 309 309 309 309 308 309 309 309 308 308 309 309 309 309 309 309 309 309 308 309 309 309 310 311 310 306 305 305 305 306 307 308 309 309 309 310 310 310 310 310 309 308 308 308 308 308 308 306 305 305 304 303 302 302 302 303 302 301 302 302 301 301 300 301 302 300 299 302 302 300 301 301 300 299 299 298 299 299 299 300 299 299 299 299 299
309 309 309 309 309 309 309 309 309 309 308 308 308 308 309 309 308 309 309 309 310 310 309 310 309 311 312 308 304 305 305 305 306 307 308 308 308 308 308 309 309 309 309 309 308 308 308 308 308 307 304 305 304 304 304 301 302 302 302 302 303 304 303 300 300 300 301 301 299 300 304 304 302 302 300 299 299 299 299 299 299 300 300 300 300 299 299 299
309 309 309 309 310 310 309 309 309 309 308 308 308 308 309 309 309 309 309 309 310 310 310 309 309 311 310 306 304 305 305 305 306 306 307 307 307 307 308 308 308 308 308 308 307 307 307 307 308 306 304 304 303 303 302 301 302 301 302 303 304 306 304 301 300 300 301 301 299 300 305 304 303 302 300 299 299 298 299 300 300 300 300 300 300 300 299 299
309 309 309 309 310 310 309 309 309 309 309 308 308 309 309 309 309 309 309 309 309 309 309 309 310 310 308 305 305 305 305 306 306 306 306 306 306 306 306 307 307 307 307 307 307 306 306 307 307 305 302 303 303 303 303 302 302 301 304 305 305 306 304 301 300 299 301 300 299 300 304 304 303 302 301 300 299 298 299 300 300 300 300 300 300 300 300 299
308 309 309 309 310 310 309 309 309 309 309 309 309 309 309 309 309 309 309 309 309 309 310 310 310 309 308 306 306 305 306 306 306 306 306 306 306 305 306 306 306 306 306 306 306 306 307 307 305 302 302 303 303 304 305 305 305 303 305 307 304 305 304 302 300 298 299 299 300 301 303 304 303 302 301 300 300 299 299 300 300 300 300 300 300 300 300 300
307 307 308 309 310 310 309 309 309 310 309 310 309 309 309 309 309 309 309 310 310 309 310 310 309 309 309 307 306 306 306 306 306 306 306 306 306 306 306 306 306 306 306 306 306 306 306 306 304 303 304 303 302 305 308 307 306 305 305 305 303 303 304 304 302 299 298 299 301 301 302 304 304 302 301 300 300 299 299 300 300 300 300 300 300 300 300 300
307 307 307 309 310 310 310 310 310 310 310 310 310 309 309 310 310 310 310 310 310 310 311 310 310 311 309 307 307 307 307 307 307 307 307 306 306 306 306 306 306 306 306 307 306 306 306 305 306 307 305 304 302 305 308 306 305 307 306 306 304 302 303 304 302 300 299 300 301 302 302 304 304 303 302 300 300 300 299 300 301 300 300 300 300 300 300 300
307 307 307 308 310 310 310 310 310 310 311 310 310 309 309 309 310 310 310 310 310 310 311 308 309 312 309 307 306 307 307 307 307 307 306 306 306 306 307 307 307 307 307 308 307 305 306 307 307 308 305 303 300 301 304 302 302 305 305 306 305 304 303 302 301 299 298 301 302 302 303 303 303 304 303 301 300 300 300 300 300 301 301 300 300 300 300 300
307 307 307 308 310 310 310 310 310 311 311 310 310 310 310 310 310 309 308 309 308 307 307 306 307 308 307 306 306 307 307 307 307 307 306 306 306 306 306 306 307 307 306 307 307 305 306 307 305 304 302 300 298 297 297 297 298 302 304 304 304 304 304 302 301 299 297 301 303 301 302 302 302 303 304 302 300 300 300 300 301 301 301 301 301 300 300 300
308 309 309 310 310 310 310 311 311 311 310 310 310 311 311 310 311 309 307 307 306 306 306 306 306 306 306 306 307 307 306 306 306 306 307 307 307 307 306 307 309 307 303 302 305 306 307 306 302 301 299 298 297 296 296 297 299 302 304 304 304 304 304 301 300 300 298 301 303 301 301 303 303 305 305 301 300 300 301 301 302 302 301 301 301 301 301 300
309 309 310 311 311 311 311 311 311 310 310 310 311 312 312 311 311 310 309 308 307 307 307 306 307 306 306 306 306 306 307 307 307 306 306 306 307 307 306 307 308 306 303 304 306 307 307 304 301 299 297 297 298 296 297 300 302 303 304 305 305 303 303 302 299 299 299 301 304 302 301 304 304 303 303 300 300 301 301 301 302 302 301 301 301 301 300 300
311 310 311 312 312 312 311 311 311 311 311 312 313 312 311 311 310 311 311 310 308 308 308 308 307 307 306 306 306 307 307 306 306 306 306 306 306 305 305 306 305 304 305 307 309 310 307 303 299 297 296 298 300 299 300 303 303 303 304 305 305 303 303 304 302 300 300 299 301 301 302 305 303 302 301 299 299 299 300 301 301 301 302 301 301 300 300 300
313 313 312 312 312 312 312 312 311 312 312 311 312 312 311 311 312 312 311 311 310 309 308 308 308 307 307 307 306 307 306 304 304 305 306 306 305 305 304 303 304 304 303 305 307 307 304 299 296 296 297 299 302 302 302 305 305 302 302 304 304 302 302 303 302 301 300 299 298 300 305 306 304 304 303 300 299 300 300 301 301 302 302 302 301 300 300 300
314 313 313 312 312 312 312 312 311 311 311 312 312 312 312 312 312 312 312 313 312 309 309 309 307 307 307 307 307 306 306 305 304 305 306 306 306 305 303 302 304 303 301 304 306 304 300 297 295 298 299 300 302 303 300 302 305 303 300 301 301 301 301 302 302 303 304 304 299 299 306 308 305 304 303 301 301 302 302 301 302 302 302 302 301 300 300 300
313 313 313 313 313 312 311 311 311 311 311 312 312 312 312 312 312 311 313 317 314 309 310 309 308 308 307 307 308 307 308 306 303 304 306 306 305 305 304 303 303 303 300 302 304 302 300 297 296 299 301 303 304 303 299 299 305 305 300 298 299 300 301 302 302 303 305 306 301 299 304 307 306 305 302 300 301 303 303 302 302 302 301 302 301 300 300 300
313 312 312 313 313 313 312 312 312 311 312 311 310 310 311 311 311 309 313 318 313 308 309 309 308 308 306 305 307 309 310 307 304 304 304 306 305 305 307 305 304 303 298 301 306 303 300 300 299 299 302 305 305 303 299 297 303 305 298 297 300 300 302 302 302 304 304 303 302 301 302 304 306 306 301 300 302 304 304 304 304 303 302 302 301 300 300 300
312 312 311 312 312 313 313 313 312 311 311 311 309 309 310 310 309 310 316 318 311 307 308 308 307 307 306 306 305 306 307 305 307 306 304 305 306 305 306 303 302 302 297 303 308 302 299 301 300 300 303 304 302 300 298 297 301 302 297 298 300 299 301 300 302 304 302 303 305 302 300 304 307 306 302 301 303 305 304 304 303 302 302 302 301 301 300 300
309 311 311 311 311 312 311 312 312 311 311 310 309 309 308 309 309 313 319 315 308 307 307 307 308 307 306 306 305 305 304 305 306 306 304 304 305 305 305 301 301 303 300 304 306 300 299 300 298 299 302 302 299 298 297 297 300 299 296 298 298 298 299 299 302 303 302 305 307 302 299 304 307 306 304 303 304 305 304 303 302 302 302 302 301 301 300 300
307 308 310 310 311 311 310 311 311 311 311 309 308 309 307 310 313 316 318 313 308 307 307 308 308 306 307 309 308 305 304 304 303 305 305 304 304 304 303 301 303 304 304 303 303 300 298 299 298 299 300 298 298 298 296 297 298 297 298 300 300 299 299 299 301 301 304 307 305 300 298 302 306 306 305 304 303 303 303 303 302 302 302 302 301 300 300 300
307 306 307 308 309 309 309 309 309 310 310 308 308 308 309 314 318 319 314 309 308 308 308 308 306 305 308 311 308 305 305 304 302 305 307 304 305 304 303 304 305 306 307 305 303 301 300 301 299 298 297 297 298 299 297 296 297 298 301 302 303 303 301 302 303 302 307 309 303 298 297 299 305 306 305 304 302 301 301 302 302 302 302 301 301 300 300 300
308 308 307 306 306 307 308 308 308 308 309 308 308 309 312 316 316 315 311 308 309 309 308 308 304 303 307 309 307 304 306 305 302 302 304 303 303 302 302 304 304 307 310 307 305 304 302 301 299 297 297 296 299 301 301 299 299 301 302 303 307 308 306 307 307 305 307 306 300 297 298 300 305 306 304 303 302 301 301 300 301 301 301 301 300 300 300 299
310 309 308 307 306 306 307 307 308 308 308 308 307 310 317 320 314 309 308 310 309 305 305 305 304 303 306 309 306 302 304 305 303 302 301 302 303 300 300 300 299 305 309 306 306 307 305 302 299 299 299 296 298 302 305 304 303 303 302 304 308 309 308 308 307 306 307 306 299 295 297 303 306 305 303 303 302 301 299 299 299 300 300 301 300 300 300 300
309 310 310 309 308 307 306 307 307 307 307 307 309 314 318 317 311 307 308 308 304 303 303 303 304 306 306 306 303 301 305 306 303 304 303 303 306 303 303 302 299 302 305 305 306 307 308 307 302 300 300 299 297 299 301 300 302 302 298 301 307 306 307 308 307 307 308 306 301 297 300 305 306 304 302 300 300 300 300 300 300 300 300 300 300 301 301 300
309 310 310 309 309 307 307 306 306 307 307 308 315 320 316 313 310 309 310 306 303 305 305 302 308 312 307 303 302 301 305 306 303 304 305 304 305 303 302 302 300 300 303 308 306 303 307 307 301 298 298 298 298 297 296 298 302 301 297 301 306 304 304 305 303 303 302 303 304 302 303 304 304 302 300 299 300 300 301 300 300 300 300 300 301 301 301 301
308 309 310 310 309 308 308 306 306 308 307 311 321 320 313 311 308 308 309 305 305 307 307 307 310 312 309 306 305 303 303 305 305 306 305 302 301 301 299 299 298 298 301 306 306 304 308 306 299 297 298 296 297 296 295 299 303 302 302 305 302 297 300 303 301 298 298 304 306 303 304 305 304 303 301 300 302 302 302 301 301 301 301 300 301 301 301 301
308 309 310 309 309 309 309 307 307 309 307 314 323 314 306 305 303 303 303 303 304 304 308 312 308 307 311 310 307 305 304 305 306 308 307 303 302 301 298 298 298 297 297 301 304 303 306 307 300 297 300 297 295 297 296 296 298 302 305 303 297 296 299 303 304 303 303 307 306 302 303 305 306 306 303 302 303 303 303 302 301 302 302 301 301 301 301 301
308 309 309 309 310 310 309 308 308 309 309 315 317 308 302 302 300 300 300 300 303 304 309 314 307 303 309 312 308 304 305 309 308 308 307 304 304 301 298 299 298 296 295 298 302 301 302 308 303 296 299 298 295 298 300 297 295 298 301 299 299 304 305 304 306 307 306 307 306 304 303 303 305 307 305 304 304 304 303 303 302 303 302 302 301 301 301 300
308 308 308 309 310 310 310 310 308 309 313 316 314 307 303 301 299 299 301 300 301 304 308 310 306 304 304 306 307 303 303 308 308 306 306 305 304 301 298 298 297 297 296 296 301 300 300 308 308 298 296 297 297 300 304 303 298 297 299 298 298 302 304 304 303 304 307 307 305 306 306 306 306 305 304 305 304 304 303 303 304 303 302 302 301 301 301 300
308 308 307 308 310 310 310 310 309 311 315 313 309 306 301 301 300 299 301 300 300 303 307 306 306 309 306 303 304 303 302 304 304 305 305 303 304 301 297 297 297 297 296 295 298 300 299 306 310 302 296 299 302 301 301 302 301 301 303 302 300 299 299 301 300 299 303 307 305 305 308 310 308 304 303 304 303 303 302 302 303 303 302 301 301 300 300 300
308 309 308 308 310 310 310 311 308 305 307 305 302 303 301 300 300 299 299 300 299 300 303 303 304 308 309 307 304 302 302 303 303 304 304 303 304 303 298 296 297 297 298 298 299 300 301 305 309 305 302 304 302 296 294 295 296 299 302 303 303 302 302 306 305 298 298 302 303 303 308 310 307 303 302 302 302 301 300 300 301 302 301 301 301 300 300 300
309 310 309 308 310 310 311 312 302 298 305 304 301 302 302 300 300 299 299 299 300 299 299 301 302 303 306 306 304 303 304 304 303 303 304 302 302 302 297 295 296 296 298 300 300 298 298 302 307 307 303 301 297 292 291 291 290 293 296 298 300 301 304 309 310 303 298 298 298 299 304 309 306 301 300 300 300 300 299 299 299 301 302 301 300 301 301 301
309 309 308 309 311 309 311 314 304 300 302 300 297 299 299 299 299 299 299 299 300 300 301 303 301 302 302 302 303 306 305 305 302 301 302 301 299 298 295 295 296 296 297 300 300 297 298 303 308 308 302 297 294 291 290 288 290 295 296 295 297 299 302 304 304 303 302 299 299 301 304 309 306 299 298 299 298 299 300 299 299 301 301 301 301 301 301 301
308 308 308 309 310 310 316 320 312 305 300 298 298 299 298 298 298 299 300 300 299 299 302 303 300 301 300 297 300 303 302 305 304 299 299 301 299 296 295 295 296 296 297 300 300 300 302 305 308 311 309 306 303 300 298 295 294 297 298 295 294 296 299 301 300 301 303 302 302 305 308 310 306 299 298 298 297 299 300 301 301 300 301 301 301 301 301 301
308 308 308 309 309 309 314 314 310 308 304 304 304 301 300 300 298 298 299 299 298 298 301 302 298 299 297 295 299 300 298 302 305 300 298 299 298 295 294 295 295 295 297 297 297 298 301 303 306 311 313 312 311 311 309 305 300 299 298 295 294 296 299 303 302 302 306 303 300 304 309 310 305 301 301 300 299 300 301 301 301 300 301 301 301 301 301 301
309 311 309 309 310 309 308 305 306 308 307 309 308 302 302 303 299 298 298 298 298 298 299 300 297 298 299 298 303 304 299 298 301 302 301 299 298 295 294 295 295 295 296 295 295 296 299 301 302 307 312 311 311 310 304 302 303 303 301 297 296 295 297 301 303 304 306 302 301 304 307 308 307 305 304 303 302 302 303 303 302 301 302 301 301 301 301 301
310 312 309 309 310 309 307 304 304 305 305 310 310 303 303 305 300 298 298 298 299 298 298 298 297 301 304 303 305 306 301 299 301 302 301 298 296 294 293 295 295 295 296 296 294 295 301 303 300 303 308 306 304 303 299 299 304 305 303 301 298 295 295 299 304 305 304 304 307 306 303 304 306 307 306 305 304 305 304 303 303 302 302 302 301 301 301 301
309 308 304 307 311 311 310 308 304 302 302 305 305 301 304 305 302 303 302 298 298 299 300 302 300 302 305 304 306 307 302 302 304 302 300 298 296 296 295 294 294 295 296 295 293 295 301 303 298 299 307 305 300 298 296 298 300 300 301 302 299 296 296 300 304 303 302 307 310 306 301 302 305 305 305 306 305 305 304 303 303 302 302 302 301 301 301 301
307 307 304 306 308 305 305 305 302 302 302 303 305 303 305 308 305 302 300 299 301 299 300 306 305 302 301 300 305 309 306 307 309 305 303 302 299 297 299 299 295 293 295 295 293 294 299 303 299 297 305 307 299 294 293 296 298 299 299 300 300 298 297 299 301 301 301 305 306 303 301 301 303 303 304 304 304 303 302 302 303 302 302 302 301 301 301 301
307 309 306 305 305 301 301 301 302 307 305 304 309 305 303 308 307 302 298 301 306 302 299 306 308 301 298 299 304 309 306 307 310 306 303 305 303 299 301 303 299 294 293 294 294 294 298 302 299 297 304 308 300 294 293 294 297 300 300 298 298 299 298 297 298 298 299 301 301 301 300 300 302 303 303 303 303 301 301 302 303 302 302 302 301 302 302 301
308 309 307 308 306 301 302 300 300 309 310 307 310 306 303 308 306 302 300 299 302 304 301 304 306 299 297 300 304 306 303 301 304 303 300 303 304 302 301 301 301 299 296 294 294 296 297 299 298 298 306 310 302 298 299 297 296 301 304 300 297 298 299 298 297 298 299 300 300 300 301 303 304 303 301 301 301 300 301 302 303 302 302 302 302 302 302 302
307 308 306 309 309 301 301 300 300 309 312 306 304 303 303 305 302 302 306 301 297 301 300 299 301 302 302 302 302 303 301 299 300 300 299 300 300 299 299 298 299 300 298 296 295 295 297 300 300 300 306 310 304 300 301 302 306 312 312 307 301 298 298 297 297 297 298 300 301 302 305 306 303 300 302 303 301 300 302 303 303 303 303 302 302 303 303 302
Wind_Speed
12 13 14 14 15 14 12 11 9 9 8 6 5 7 9 13 16 19 20 20 20 19 18 17 17 19 21 23 22 19 14 10 10 22 28 23 16 13 14 13 14 14 14 14 13 14 12 11 11 12 13 15 21 19 17 18 15 8 4 8 7 5 6 2 2 5 8 10 8 6 3 6 8 5 7 8 7 8 10 10 9 10 9 9 7 6 6 6
12 12 12 13 13 12 12 11 11 11 11 9 6 6 9 13 17 19 20 20 17 14 13 12 11 10 12 17 21 24 23 18 21 29 25 15 13 13 11 10 10 10 10 9 9 8 7 13 13 12 20 22 19 16 15 16 16 11 4 8 7 4 5 3 4 7 7 10 9 8 5 5 7 5 4 4 5 6 8 8 7 8 7 6 6 6 5 6
12 12 12 12 11 10 9 9 10 12 12 14 11 7 9 13 17 18 17 16 12 8 5 4 4 3 6 9 13 18 23 25 25 27 19 15 16 12 11 10 10 9 7 5 5 4 8 16 16 18 31 28 18 20 19 14 14 12 6 8 6 6 8 6 6 7 7 12 12 9 6 5 6 4 3 5 7 4 5 6 5 6 5 4 4 4 4 5
13 13 13 12 10 9 7 7 8 8 9 12 14 10 8 13 16 17 14 12 7 3 6 8 2 5 6 6 7 8 18 25 24 23 15 15 15 14 13 12 11 9 5 5 7 9 14 18 22 29 34 23 18 23 20 13 10 8 8 9 8 9 9 6 7 9 10 12 11 9 7 6 5 4 4 5 4 4 4 4 4 4 2 2 2 2 4 5
12 11 10 9 8 8 6 7 6 7 7 8 13 15 9 12 15 15 13 10 5 6 10 10 7 7 6 4 5 3 7 13 16 18 15 14 14 15 14 14 14 10 6 9 12 16 19 22 30 33 26 13 13 19 16 14 15 11 11 12 10 10 9 6 8 13 12 10 10 9 6 6 5 4 4 3 1 3 5 5 5 4 2 2 1 1 3 5
10 8 7 6 7 7 6 6 6 6 7 6 10 16 15 11 13 14 13 10 5 9 19 23 19 11 8 7 7 6 10 7 13 17 14 12 12 12 14 14 12 9 8 11 16 20 22 25 30 24 17 14 15 14 10 11 11 10 10 12 12 11 11 8 9 13 11 9 8 6 6 6 5 4 4 2 1 5 6 6 6 4 3 2 1 1 2 4
9 8 7 7 7 6 6 6 6 6 5 5 7 11 17 13 9 11 13 9 7 13 20 23 26 25 25 24 22 28 31 17 17 19 14 13 11 11 11 10 11 10 9 14 19 23 24 28 30 20 16 17 15 17 21 22 17 14 12 11 13 13 13 11 10 12 9 8 8 7 7 4 2 3 4 3 4 7 6 6 5 4 3 2 2 2 3 4
8 7 6 7 7 7 7 7 6 5 5 5 7 7 12 14 12 11 11 10 15 15 12 13 20 24 29 32 34 38 36 22 22 20 14 15 13 12 11 10 11 9 13 20 20 19 21 29 30 18 16 15 14 20 25 26 20 15 13 10 12 12 13 13 11 11 9 10 10 7 5 3 2 3 3 4 6 6 5 5 5 4 4 3 3 4 4 5
8 7 7 8 8 8 9 8 7 7 9 9 9 9 9 12 14 17 19 17 16 7 6 11 16 18 21 23 31 32 25 18 20 21 16 14 14 15 13 12 12 14 18 19 10 6 9 18 21 20 24 19 15 15 10 10 9 9 14 13 13 12 11 11 10 11 10 8 7 4 3 4 3 2 4 6 7 7 6 6 6 5 5 5 4 4 5 5
9 8 9 9 9 10 11 10 10 12 13 13 11 9 8 9 11 15 15 11 7 2 4 12 13 10 7 10 25 22 14 14 16 19 20 14 12 12 13 14 16 15 11 7 3 6 15 25 31 35 33 21 13 12 9 9 11 14 19 18 15 12 10 9 9 9 7 6 4 3 3 3 1 1 3 7 9 8 7 6 6 6 6 5 5 5 5 6
10 10 11 11 11 13 13 13 15 16 16 15 13 11 10 9 10 10 9 10 11 11 12 14 11 9 12 23 33 21 13 17 13 14 17 14 14 13 12 13 13 10 7 15 22 26 33 35 32 27 23 21 21 22 21 20 22 21 21 19 14 12 11 8 7 6 3 4 3 1 2 3 3 3 2 8 10 8 7 7 7 7 6 6 5 6 6 5
12 12 12 12 13 14 14 16 17 18 17 18 18 18 19 18 19 19 19 21 23 25 24 22 20 19 26 42 40 23 21 24 18 15 16 18 23 22 19 17 16 14 15 27 32 28 27 20 15 17 19 24 20 15 18 20 21 17 12 12 10 10 10 8 4 3 2 1 1 2 3 4 5 4 4 8 10 9 8 7 7 7 7 6 6 6 6 6
12 11 11 11 12 12 13 14 16 19 17 19 21 21 21 21 22 22 21 17 13 15 15 15 15 10 20 35 29 23 26 28 25 23 21 22 24 22 21 19 18 17 14 21 23 16 15 13 18 31 28 20 12 13 21 17 12 9 4 5 6 6 6 7 5 3 1 2 3 3 2 2 4 5 6 10 10 9 8 7 7 7 7 7 7 6 6 6
12 11 10 10 11 12 13 12 14 17 17 18 19 19 18 18 17 15 13 10 9 9 9 12 8 7 22 25 19 23 26 27 29 29 29 27 25 23 22 21 20 20 18 24 25 21 23 25 31 36 27 22 23 23 20 9 4 4 1 1 1 1 3 4 5 4 2 1 2 3 2 1 2 4 8 11 10 9 9 8 8 8 8 8 7 7 7 7
13 13 11 10 11 12 13 12 12 13 15 16 15 16 17 18 17 17 17 17 21 22 20 19 12 19 34 24 16 23 25 27 30 30 31 29 29 29 28 28 29 28 28 30 32 30 31 33 35 32 25 27 27 17 10 3 2 1 1 2 1 1 2 1 3 5 3 1 2 3 2 1 0 2 7 10 10 11 10 9 9 9 9 9 8 9 8 8
14 13 11 11 11 12 13 13 12 11 13 13 13 15 15 16 17 19 20 19 21 19 18 21 18 25 30 16 15 21 19 21 22 22 22 21 25 28 28 30 30 30 30 30 28 24 25 30 34 27 19 15 9 4 5 4 3 1 1 3 1 1 2 2 3 3 5 3 2 3 3 3 0 3 6 9 11 12 12 11 11 11 10 9 9 10 10 9
13 11 9 10 11 11 10 10 11 11 13 13 13 14 14 16 18 18 17 16 17 13 13 22 24 26 22 10 12 14 12 13 11 11 11 12 16 18 20 21 22 22 21 20 16 14 18 22 20 14 11 7 2 1 3 3 3 2 1 2 1 0 1 0 3 2 6 3 3 2 3 6 2 3 6 8 10 12 13 12 11 11 11 11 10 11 10 10
9 8 6 7 10 10 8 9 12 12 13 13 13 14 14 13 12 11 10 8 9 9 9 12 10 12 13 7 9 9 7 6 5 6 7 8 10 10 10 10 11 13 12 11 10 12 16 14 9 5 6 6 4 3 1 3 2 1 2 2 2 1 2 2 1 3 7 3 4 4 5 8 6 4 6 8 11 12 13 12 12 12 12 12 12 12 12 11
5 6 5 5 8 10 9 12 14 13 13 13 14 14 13 13 11 10 13 11 11 9 4 11 12 9 9 11 13 11 7 5 4 5 6 8 9 8 7 6 7 8 8 7 9 14 12 8 6 5 5 6 5 5 3 3 3 1 2 2 2 2 1 1 1 5 7 4 5 5 6 8 8 7 6 8 11 12 13 13 13 13 13 12 13 13 12 12
3 6 6 6 9 11 12 14 14 13 13 14 15 13 12 15 14 16 28 31 27 21 11 16 22 19 15 14 14 13 11 9 5 4 5 7 7 8 8 8 10 12 10 4 5 11 9 7 6 4 3 4 4 4 2 2 3 2 3 3 3 2 2 2 2 4 5 5 2 2 6 10 10 11 8 7 9 11 13 12 12 12 11 11 12 11 11 11
4 7 7 7 10 12 14 14 14 14 16 16 14 8 4 8 9 13 29 32 28 27 22 20 21 19 15 11 10 11 11 12 9 5 3 2 2 3 5 6 9 10 8 3 3 7 7 7 5 3 2 3 2 1 1 1 2 2 2 3 2 2 2 2 2 3 4 4 1 2 8 12 12 12 9 7 8 10 11 11 10 9 9 10 10 10 11 12
6 8 8 10 12 13 15 15 15 14 13 10 5 2 4 11 15 21 27 24 22 25 23 21 20 19 16 11 9 8 9 12 13 11 7 5 4 3 6 9 8 5 3 3 3 4 7 6 3 3 1 1 2 2 0 2 4 3 2 0 1 2 2 0 1 2 2 3 3 6 10 13 10 7 5 4 6 8 10 10 9 9 9 9 10 11 11 10
6 8 10 11 12 15 16 16 13 8 5 3 4 9 17 22 23 25 26 20 16 19 19 19 20 18 15 13 11 9 12 12 12 14 13 11 12 12 13 12 8 5 4 5 1 4 5 4 2 3 2 3 3 4 1 1 3 4 3 1 1 3 3 0 2 1 1 1 4 9 10 8 5 2 2 1 3 8 11 11 11 11 10 9 10 9 8 7
7 9 10 10 12 13 14 13 8 4 5 10 16 21 24 25 23 22 21 15 9 11 15 16 17 17 15 13 11 12 18 17 14 15 14 12 13 13 13 10 8 7 7 7 8 10 7 3 3 1 2 2 2 5 4 1 2 3 3 3 1 2 2 1 3 4 1 3 2 9 7 1 3 3 4 4 3 5 10 11 11 11 10 9 8 7 6 6
9 10 10 10 10 11 11 10 6 8 15 20 22 22 19 16 12 9 9 8 6 7 10 9 11 14 12 9 8 10 16 18 19 17 12 11 9 7 8 7 6 4 2 4 9 11 7 3 2 1 1 2 1 4 5 3 0 2 2 2 1 1 0 2 5 6 2 2 3 6 4 1 3 3 3 4 4 4 6 8 9 9 8 8 7 5 5 7
11 12 13 11 9 10 11 10 12 18 22 19 15 12 9 6 4 4 3 3 3 6 7 6 7 8 10 9 3 4 7 9 16 18 12 11 9 6 6 5 6 4 2 2 5 6 4 2 1 0 2 3 3 4 4 4 2 1 1 1 1 1 1 2 4 4 2 2 3 5 4 2 2 3 4 5 5 5 5 6 8 7 7 7 6 5 5 7
13 13 13 12 11 12 12 15 22 24 19 12 7 4 3 3 2 3 1 2 3 4 5 5 5 6 10 12 4 2 2 2 8 17 15 10 7 7 6 2 3 5 2 2 3 3 3 2 3 2 0 2 3 3 3 4 3 1 2 1 1 1 1 1 2 2 1 1 1 3 3 3 3 2 2 4 5 5 4 4 4 6 7 6 6 6 6 7
14 13 13 12 12 12 11 18 27 22 11 5 2 1 1 3 2 3 1 2 2 3 4 3 4 6 8 12 12 9 5 3 3 10 15 12 7 7 8 4 4 6 1 2 2 3 3 4 4 2 1 3 3 2 3 3 2 2 2 1 1 1 1 0 2 0 0 2 1 4 4 3 2 2 1 2 3 4 5 4 4 2 5 5 5 5 7 8
14 15 14 13 11 10 9 14 22 16 6 2 1 2 2 3 2 1 1 2 1 1 2 2 2 4 5 8 15 15 9 6 5 6 11 13 10 11 12 10 11 12 8 6 5 4 3 4 3 2 2 3 2 1 2 2 1 2 3 2 1 1 0 1 2 0 1 1 2 4 5 4 2 2 2 0 2 4 5 4 4 2 2 2 4 5 7 8
10 13 15 15 13 12 10 12 16 15 10 6 4 3 2 1 0 0 2 1 1 1 2 3 2 5 5 2 8 13 9 8 8 6 10 13 14 17 16 12 11 9 9 13 10 5 3 3 4 4 3 1 1 1 0 1 0 2 3 2 2 2 1 1 1 1 2 0 3 3 4 4 2 2 2 1 2 3 4 3 2 2 2 1 4 5 7 8
7 10 12 14 14 13 13 13 14 14 11 7 4 3 2 1 1 2 2 0 1 1 2 3 3 5 5 1 3 8 6 7 10 7 7 8 10 12 9 5 4 3 4 7 7 3 3 3 3 4 4 1 1 1 1 2 2 3 3 3 2 1 1 2 1 1 2 3 3 2 3 3 2 1 1 0 2 3 4 3 2 1 0 2 4 6 8 9
6 7 9 11 11 12 13 12 12 13 10 7 5 4 2 0 1 1 0 1 1 1 2 2 2 3 3 1 3 5 2 5 10 7 4 3 5 6 5 2 1 0 2 2 2 2 2 3 1 1 3 3 2 2 1 3 3 3 3 3 2 1 0 1 1 0 2 2 2 1 3 2 3 2 2 2 3 3 3 4 5 4 3 3 5 7 8 9
6 6 7 8 10 10 11 10 11 11 9 7 7 3 1 1 1 1 1 1 1 1 1 1 1 1 1 1 3 4 1 2 5 5 2 1 3 3 2 3 2 2 1 2 2 2 1 2 1 1 1 4 4 2 0 0 1 2 2 3 3 3 2 2 2 2 2 1 2 1 2 2 3 2 1 2 3 4 6 7 8 8 7 5 5 7 8 8
7 7 6 6 8 9 9 9 10 10 9 8 6 1 2 2 1 0 1 1 0 1 1 1 1 1 2 3 2 3 1 3 3 2 2 1 2 2 1 4 4 2 1 2 1 1 0 2 2 1 1 4 4 2 2 2 2 2 1 3 2 2 3 3 1 2 3 3 1 1 1 2 3 1 1 4 8 10 11 9 9 10 9 7 6 6 8 8
10 8 6 5 6 7 7 9 10 9 10 9 3 2 1 1 1 2 2 1 1 1 1 0 1 1 3 3 2 1 1 2 2 2 4 3 2 2 2 2 5 3 0 0 1 1 1 1 2 2 2 3 1 1 2 2 1 1 2 2 1 1 1 1 2 1 2 3 2 1 2 2 2 1 2 6 9 11 10 8 8 9 9 9 7 6 7 8
11 9 7 6 6 6 7 8 9 10 11 7 3 3 1 1 1 2 2 2 2 2 3 2 1 2 2 1 2 2 2 2 1 1 4 3 0 1 1 1 3 3 1 1 1 1 0 2 2 1 2 3 1 1 1 2 1 0 1 0 2 2 0 2 2 1 1 2 1 1 3 4 2 1 1 2 4 5 4 5 6 6 8 10 9 8 8 9
8 9 8 7 6 6 7 8 10 11 8 3 4 3 0 1 0 0 1 1 2 2 2 2 1 2 1 1 1 2 3 2 1 1 1 1 0 1 0 1 1 2 2 1 1 1 1 2 3 1 1 2 1 2 1 2 2 2 0 3 3 1 0 1 0 0 1 2 1 0 3 5 3 1 1 2 2 2 2 2 3 4 5 7 8 8 9 11
6 8 9 7 6 6 7 8 9 9 5 4 4 2 1 0 1 0 1 2 2 2 1 1 1 1 1 1 1 1 3 1 1 2 1 0 0 1 1 1 0 1 3 2 1 0 1 1 3 1 1 1 1 2 1 2 3 2 1 4 1 1 0 1 0 1 1 2 2 2 2 3 3 1 1 3 4 4 2 2 2 2 2 4 6 7 9 12
5 5 8 7 6 6 7 8 8 7 5 5 2 2 1 1 1 2 2 1 1 1 1 1 1 1 1 0 2 1 2 1 1 1 0 0 0 1 1 1 1 1 3 2 1 1 1 1 2 2 1 0 1 2 2 2 2 1 0 1 0 1 1 0 1 0 1 2 2 3 2 2 4 2 2 4 5 5 4 3 2 3 3 4 5 7 11 14
5 4 6 6 6 8 7 8 7 4 4 3 2 2 1 2 3 2 2 2 1 0 0 1 1 1 1 0 0 1 1 1 1 1 1 0 0 1 1 1 1 1 2 1 0 0 1 1 0 3 1 2 1 1 1 1 1 1 2 1 1 1 1 0 1 1 1 1 1 2 3 2 2 2 4 6 5 4 5 4 5 7 7 7 8 11 14 15
4 3 4 4 6 7 7 8 8 7 4 2 1 2 1 2 4 3 3 3 2 2 2 2 2 2 3 1 0 1 1 1 1 1 1 1 1 0 2 3 1 1 1 0 0 0 0 1 0 2 2 2 1 2 3 3 3 2 1 1 1 1 1 1 0 1 1 1 1 1 4 5 1 2 4 5 4 5 5 6 8 10 11 12 12 13 13 12
4 3 3 3 5 6 6 7 8 6 3 2 3 3 2 3 4 3 3 3 2 2 3 3 2 2 2 1 1 2 2 2 1 0 0 1 1 0 3 4 2 0 0 0 1 1 1 1 0 1 1 1 2 2 2 2 2 2 2 2 1 0 1 2 1 1 2 0 1 1 3 4 1 3 5 6 7 8 9 10 10 12 15 14 12 10 9 8
5 5 4 5 7 7 6 5 4 4 3 3 4 4 4 3 2 2 2 2 1 1 2 2 2 2 1 0 1 2 2 1 1 0 0 1 1 1 3 4 2 2 1 0 1 1 0 1 1 1 1 1 1 2 1 1 2 2 2 1 1 1 1 1 1 1 2 2 2 1 3 3 1 4 6 8 10 12 11 11 11 14 15 12 7 5 6 6
10 10 8 5 5 3 3 3 2 2 2 3 4 4 4 4 3 2 1 1 1 1 2 2 1 2 2 1 2 2 0 0 0 0 0 2 2 2 3 3 2 2 1 0 1 1 1 0 1 2 0 1 2 2 1 0 1 3 1 1 1 1 3 2 1 1 2 3 4 2 4 3 2 2 4 7 8 10 12 11 12 13 12 8 5 5 5 6
9 8 9 9 3 3 3 6 8 6 2 3 4 2 2 4 4 3 3 3 3 2 2 2 2 4 4 2 3 3 2 1 0 0 0 1 2 2 2 1 1 2 1 1 2 1 0 0 1 2 1 1 1 1 1 1 1 2 1 1 3 3 3 2 2 1 3 2 3 5 5 1 1 2 5 7 6 8 12 12 11 11 9 6 6 5 5 6
4 2 4 7 7 8 10 10 13 11 5 4 4 1 1 3 2 3 4 3 4 4 4 4 4 4 3 1 3 3 2 3 2 1 1 1 1 1 1 1 0 1 2 3 3 2 1 0 1 2 3 3 2 1 1 1 1 2 2 4 5 5 3 1 1 3 3 3 4 8 6 6 7 6 5 6 6 7 9 9 10 11 10 7 7 7 6 7
3 1 1 2 6 10 12 9 11 12 8 6 3 2 3 3 1 2 2 1 2 4 3 3 2 2 1 2 2 2 1 2 2 2 2 1 1 1 2 1 1 1 2 2 2 1 1 1 1 1 5 4 1 2 2 2 3 4 3 5 7 7 5 5 6 4 5 4 5 5 4 6 11 9 6 6 7 6 8 11 14 14 11 10 10 10 9 9
3 3 3 4 3 3 5 4 9 13 9 5 3 2 3 3 2 2 1 1 2 3 2 2 1 2 2 3 2 2 2 1 1 2 1 1 1 1 1 2 2 3 2 1 0 1 0 1 1 1 5 5 2 2 2 3 4 4 5 6 8 9 10 11 10 6 7 8 6 1 3 8 12 11 9 11 11 9 13 17 17 15 12 11 12 13 13 12
7 8 6 6 4 5 6 8 12 15 9 4 3 3 4 5 4 2 2 2 1 1 2 1 2 3 4 3 2 3 3 1 0 2 3 3 2 2 1 2 3 3 3 2 1 0 1 1 2 1 5 6 2 1 1 4 4 5 8 10 9 11 13 13 11 7 7 12 10 4 6 12 15 13 16 23 23 19 20 20 16 14 13 12 14 15 16 14
8 7 6 9 11 10 10 9 10 9 5 2 2 2 4 6 6 3 3 4 2 2 3 2 2 4 3 3 3 1 3 4 1 1 6 5 2 3 3 2 3 4 2 2 1 0 1 0 2 2 4 5 1 2 0 2 3 5 8 9 10 9 10 11 10 7 7 11 11 8 11 14 16 16 18 27 26 18 17 17 14 13 12 12 15 15 15 13
6 7 10 12 9 5 4 5 4 3 2 0 1 3 4 5 7 7 5 3 2 3 4 4 7 6 2 1 2 1 2 4 1 1 8 5 1 5 4 3 6 6 3 2 2 1 2 1 2 1 3 3 0 1 1 1 3 7 10 10 13 10 7 8 9 8 10 9 3 3 7 9 10 9 10 16 17 15 16 16 14 13 11 11 14 13 13 13
8 9 10 8 4 1 1 2 1 2 3 1 2 5 4 5 11 11 4 2 3 3 4 7 10 7 1 1 3 1 4 4 3 4 7 4 3 5 5 5 8 6 4 4 1 0 2 2 2 1 3 3 1 0 1 4 5 5 5 7 13 12 8 6 7 10 14 10 4 5 7 4 0 1 3 7 11 14 16 15 13 13 12 12 15 14 13 13
Wind_Direction
98 105 96 88 82 81 84 83 84 81 79 80 94 109 126 140 136 132 127 121 121 113 101 94 91 88 89 90 89 91 101 129 116 89 80 61 49 62 73 82 86 96 104 106 114 120 123 116 114 117 117 100 86 81 82 82 77 71 69 89 93 96 97 77 81 102 117 131 142 140 149 129 120 105 101 93 88 101 93 87 95 97 103 104 102 97 79 57
101 108 101 91 86 84 82 81 85 82 74 69 89 117 124 139 140 136 135 132 130 125 114 103 95 87 90 88 87 87 86 102 98 78 70 66 73 78 82 86 88 103 102 106 127 133 125 114 122 129 110 90 76 80 81 71 60 48 63 94 78 84 84 36 88 105 117 129 131 125 124 117 117 117 124 120 109 113 102 93 99 100 96 95 94 84 65 46
104 110 105 94 88 86 85 88 92 88 72 61 70 105 131 140 145 146 142 141 140 131 117 85 92 111 121 103 91 80 73 85 74 53 61 79 83 87 90 90 92 101 94 110 146 153 124 116 124 116 98 82 70 81 76 65 55 34 47 92 81 102 95 59 88 104 111 127 130 125 120 104 110 121 129 134 127 120 107 106 113 108 96 86 84 76 56 32
108 111 104 93 86 85 89 97 101 94 77 66 64 73 135 149 154 158 153 154 150 94 360 348 55 143 145 134 119 89 68 71 42 24 57 76 78 86 85 85 81 78 77 120 137 132 122 119 121 107 92 77 68 74 59 50 69 37 42 90 109 118 102 64 85 109 119 127 127 128 130 109 108 122 130 154 143 116 115 123 129 120 107 96 85 63 41 22
115 114 102 87 82 82 87 96 101 95 86 86 73 65 103 150 164 169 169 171 148 66 35 41 98 146 166 157 156 168 63 63 17 19 62 71 78 82 82 83 77 76 84 115 125 122 122 122 115 100 84 68 59 68 55 57 84 73 54 82 102 112 107 86 103 121 126 126 124 129 134 117 117 119 135 211 251 113 138 147 144 141 150 151 127 52 32 17
123 117 100 85 83 81 84 90 93 97 96 106 91 69 72 116 161 176 183 185 163 86 74 76 87 108 130 121 148 130 85 69 7 26 58 68 83 88 92 94 86 93 99 115 126 125 125 119 107 90 78 71 57 71 74 58 83 96 73 76 85 97 109 111 119 125 129 126 123 127 124 124 131 123 124 151 104 131 155 159 156 162 171 174 171 26 13 2
128 116 103 92 86 85 87 88 86 89 95 122 127 84 69 80 124 172 190 192 157 106 82 82 91 99 104 103 111 91 71 53 17 30 56 67 87 98 100 112 104 107 119 126 129 123 117 106 98 89 86 82 68 83 87 73 76 100 100 85 84 92 104 114 122 125 134 127 122 129 122 120 142 139 128 132 143 151 166 169 172 185 196 219 248 296 328 336
135 120 102 89 84 87 91 93 86 71 70 113 155 124 79 72 87 129 151 146 142 122 76 86 103 103 103 102 98 74 49 29 21 31 54 66 80 96 105 117 113 131 135 123 118 109 100 97 96 88 83 86 95 100 95 82 67 81 105 107 97 95 102 111 119 121 124 120 119 120 107 95 103 139 164 168 165 167 182 186 194 209 221 241 267 293 310 315
135 118 97 86 83 90 97 96 80 63 67 91 132 138 100 84 93 106 113 125 136 127 45 101 123 110 96 95 90 66 31 23 32 36 54 67 72 83 95 105 122 148 137 122 110 74 90 101 103 108 104 99 105 107 101 87 64 87 111 114 107 103 104 107 110 111 111 113 124 121 103 109 105 127 193 189 185 186 197 206 215 223 237 253 277 294 300 302
122 109 95 86 87 97 100 93 80 75 76 86 109 127 116 99 105 110 114 124 120 47 64 109 136 127 96 88 86 69 27 44 50 45 53 59 71 86 101 114 134 150 142 127 99 90 114 114 110 111 106 96 88 76 66 96 115 118 111 106 104 103 101 100 101 103 107 114 132 149 144 144 167 269 212 193 196 199 205 221 230 231 241 252 271 285 289 293
110 103 94 87 94 103 100 96 91 85 82 88 98 106 107 102 109 116 114 104 88 77 83 98 124 142 124 95 85 76 53 64 66 56 57 63 78 92 104 118 141 157 137 109 105 108 111 112 109 101 91 94 90 73 78 105 120 120 111 102 99 101 91 82 94 91 91 121 118 154 211 206 223 257 222 193 200 205 210 226 237 237 244 249 264 276 282 290
103 99 93 91 98 102 102 103 95 86 88 93 98 101 99 99 103 106 107 104 96 90 93 100 107 116 103 83 77 79 74 72 74 74 79 82 82 86 92 103 118 120 117 110 110 116 115 115 116 105 105 110 99 82 100 116 121 120 113 103 110 112 80 46 53 48 10 193 238 291 251 206 203 226 215 202 204 210 218 231 240 241 247 252 264 273 281 288
99 99 96 94 99 98 102 114 101 86 92 102 103 100 97 101 105 108 112 111 102 96 101 104 103 106 85 74 75 86 82 78 81 84 88 86 85 87 90 99 107 104 105 107 110 118 118 125 122 115 115 110 99 115 124 123 120 117 103 102 128 128 69 34 20 338 257 223 280 271 266 160 194 219 215 212 210 218 233 240 242 246 251 254 266 274 279 284
101 104 104 99 99 96 97 118 116 93 95 110 107 98 96 99 103 115 121 109 96 99 107 105 114 115 89 86 91 92 90 89 87 86 85 84 85 84 85 90 93 93 92 94 98 104 112 119 115 107 100 102 113 120 120 117 103 107 133 99 116 135 89 57 24 340 241 178 309 260 277 84 179 217 216 220 216 224 241 244 246 250 253 257 265 271 278 283
96 104 111 109 107 105 99 111 124 106 99 111 112 105 101 93 92 104 105 101 97 100 107 103 103 103 93 91 101 98 98 96 88 84 84 84 85 85 87 89 88 90 92 94 98 104 110 109 102 95 93 106 118 120 114 109 84 86 226 107 36 40 115 124 43 13 351 323 303 261 284 341 209 212 216 225 226 232 246 251 252 254 257 262 265 271 277 281
83 90 106 119 119 115 107 109 120 118 108 112 118 115 109 97 98 107 105 102 96 94 103 95 92 98 92 88 104 105 104 95 86 81 81 83 87 90 91 91 92 95 95 95 99 102 102 97 92 92 96 103 111 118 118 119 105 35 344 100 76 76 122 175 145 44 354 312 262 251 292 317 205 167 209 231 233 236 249 255 257 260 262 266 269 273 278 283
80 78 94 118 130 128 117 114 117 119 116 116 119 122 121 109 105 111 108 100 90 88 96 92 91 87 80 93 109 103 104 92 81 76 75 83 92 96 94 93 97 98 97 96 99 100 92 88 89 89 81 74 22 291 128 99 94 88 35 102 65 33 183 264 145 44 340 291 248 245 263 284 259 184 222 239 239 237 247 256 260 264 266 271 273 276 280 284
83 87 99 118 135 138 127 124 123 122 118 121 126 126 128 120 113 115 113 106 85 89 94 79 78 75 68 95 105 96 107 93 81 79 70 83 95 105 105 103 105 106 102 92 79 77 79 79 89 97 59 47 18 342 70 73 66 118 109 124 119 189 255 328 118 12 352 298 270 275 254 273 275 248 240 243 245 240 244 256 263 266 269 272 275 277 282 285
76 105 133 138 142 139 130 130 129 123 118 127 132 126 125 116 106 87 86 94 74 69 64 39 53 93 102 100 93 91 98 91 90 90 90 95 91 98 110 116 125 120 100 79 45 48 66 75 69 72 41 24 17 4 26 33 352 42 81 93 102 120 136 11 45 26 359 306 281 282 273 285 287 281 263 243 242 240 247 258 265 270 273 275 277 279 284 289
90 123 146 150 148 143 136 135 131 126 122 129 128 125 122 101 83 66 70 75 72 74 83 68 75 97 105 100 94 85 77 71 77 100 115 110 91 85 92 107 107 86 68 56 32 45 64 78 51 41 34 12 6 3 5 341 327 37 83 82 66 40 85 73 42 42 359 313 290 295 294 289 279 275 269 247 239 239 246 254 262 272 278 280 281 284 290 296
128 136 143 137 143 146 144 141 134 128 126 131 130 129 135 91 88 89 78 72 71 75 79 80 85 92 92 97 96 88 80 69 69 88 112 135 134 76 72 97 91 66 41 25 69 54 54 73 57 17 12 353 13 22 297 312 355 27 70 87 70 17 46 63 17 36 18 332 302 7 309 285 275 270 260 235 230 235 240 246 256 268 277 283 287 294 299 299
140 148 147 134 136 140 144 144 136 130 130 139 154 175 139 114 112 108 95 83 73 71 73 77 81 80 80 87 88 95 92 67 56 59 63 89 115 96 81 77 69 66 20 10 94 80 55 72 53 353 311 221 81 76 228 64 44 36 45 77 77 21 322 244 95 64 20 332 314 345 313 290 292 287 264 226 223 233 237 239 248 258 271 285 296 303 304 301
137 151 154 145 138 134 138 141 137 134 134 145 144 128 120 113 107 100 96 92 75 64 65 68 68 67 68 69 70 81 81 58 31 37 51 78 88 83 83 73 62 74 22 2 102 106 73 75 30 350 246 219 66 54 357 74 53 36 22 348 44 20 331 275 84 14 1 10 308 309 292 285 323 11 89 44 260 244 242 242 248 255 269 286 297 303 308 313
129 142 153 153 150 146 143 144 143 127 123 129 125 123 118 110 104 96 89 91 84 57 52 55 53 52 51 54 62 70 70 58 29 26 41 69 82 76 77 73 71 70 39 36 76 84 79 56 19 316 237 260 51 52 16 327 70 49 27 28 56 46 10 289 310 313 269 143 304 305 284 237 22 42 78 38 347 265 253 258 259 257 269 287 295 302 314 327
133 135 138 142 154 162 159 156 151 129 131 132 126 122 121 113 103 94 86 90 89 36 29 41 38 36 36 44 68 72 67 56 33 26 38 58 71 88 85 64 58 70 26 41 73 80 70 24 339 206 119 41 52 57 20 329 344 82 48 32 57 105 347 289 304 305 273 134 25 336 325 91 55 39 44 14 350 297 265 265 265 260 266 281 293 301 311 325
143 136 127 124 134 154 165 166 150 139 139 137 130 127 131 125 84 72 89 97 72 360 1 21 21 21 17 15 49 98 72 53 31 29 41 53 59 98 100 45 47 106 171 77 86 88 59 38 59 125 100 90 92 81 24 328 303 56 71 55 177 199 280 328 331 321 319 2 9 353 341 328 3 53 35 350 321 299 275 256 259 257 253 268 287 296 306 315
156 147 135 126 126 137 154 161 152 147 148 145 141 143 154 175 87 42 11 95 67 352 355 7 15 32 21 14 22 152 88 82 39 32 39 51 59 89 97 38 48 89 141 172 105 66 15 51 64 33 72 86 73 70 16 336 312 23 85 170 215 273 310 9 328 331 17 313 318 24 4 287 306 51 39 330 309 298 300 277 261 248 243 265 286 292 302 304
173 167 157 148 145 145 151 160 157 154 152 150 153 164 198 234 280 328 341 103 42 350 8 14 40 51 37 37 54 77 86 101 53 26 34 50 62 79 79 58 83 92 75 237 137 66 7 22 31 358 22 52 43 25 1 320 309 48 108 194 312 350 48 283 276 292 43 240 158 32 356 287 304 66 107 313 314 319 332 347 353 285 231 262 293 297 300 299
183 187 183 178 178 175 169 170 174 179 192 225 268 266 262 270 283 315 97 104 335 355 26 11 39 22 13 45 51 57 66 58 49 32 40 54 65 84 90 90 104 99 60 47 96 110 50 39 39 341 19 56 53 14 357 293 312 85 139 177 148 163 158 275 292 276 231 253 79 23 350 330 336 64 114 326 344 338 340 357 12 40 173 257 298 296 292 291
179 192 197 201 203 202 196 187 194 209 229 252 266 258 261 306 286 67 92 113 316 335 335 349 354 340 341 42 44 39 46 41 38 52 63 64 68 81 94 99 99 92 66 63 75 102 105 79 67 45 43 71 91 84 106 278 297 138 174 198 184 192 208 206 290 269 241 70 73 30 346 331 333 66 90 11 347 319 321 345 32 106 126 315 300 287 284 288
161 183 197 205 208 209 205 201 208 217 226 240 242 222 197 70 57 112 108 137 352 349 348 16 9 356 8 85 41 21 31 32 19 30 61 54 51 62 73 88 79 84 97 75 69 112 126 86 69 55 54 63 240 217 182 192 198 206 231 244 225 182 184 199 198 242 313 28 84 62 345 299 288 23 68 332 265 256 274 306 339 119 218 308 295 287 290 297
136 165 184 196 202 206 206 209 212 211 218 225 209 193 175 58 20 87 306 298 15 19 26 27 1 14 17 62 46 5 355 28 17 26 51 27 36 40 21 4 13 110 113 69 87 135 88 59 87 122 56 26 299 243 179 174 204 241 253 266 301 358 57 6 19 287 329 29 113 82 351 271 256 310 324 278 270 266 264 272 278 269 263 285 300 305 307 308
111 139 162 182 193 197 200 205 202 200 207 201 185 177 100 92 91 85 294 310 34 1 56 68 17 5 284 48 44 352 341 29 3 27 56 2 67 68 54 50 350 269 107 85 147 144 114 110 118 171 81 10 338 312 33 166 314 326 310 318 349 20 14 4 357 313 307 15 131 152 329 302 285 296 260 266 283 293 293 284 269 254 252 276 305 323 327 323
87 100 119 156 177 186 193 193 190 191 190 175 169 172 54 88 107 106 257 269 333 333 47 58 312 32 43 58 26 308 48 58 346 16 40 359 64 67 96 64 18 329 112 113 144 47 139 144 51 31 354 354 357 10 7 332 336 1 302 312 19 65 357 347 351 319 307 311 294 170 263 322 338 30 197 270 287 291 292 289 271 252 250 269 294 320 335 337
68 78 94 116 145 168 176 178 180 178 172 162 132 48 85 138 194 179 179 197 182 171 123 114 257 77 50 41 28 316 14 50 10 23 29 25 58 37 20 14 4 359 302 184 133 61 333 100 65 42 8 359 14 19 341 285 273 131 223 277 8 50 359 30 45 358 300 298 290 239 270 267 283 325 282 282 288 290 289 282 270 261 254 261 279 299 322 340
61 67 84 97 117 141 151 164 168 162 165 161 83 56 93 146 204 173 127 130 148 152 151 149 16 59 82 38 45 39 9 24 18 2 36 42 79 34 13 317 354 358 334 354 136 184 255 107 111 92 58 44 71 108 334 294 283 244 253 51 54 20 63 119 79 75 204 274 286 304 293 278 270 278 273 291 288 282 287 277 270 272 263 261 270 282 301 321
68 66 76 91 109 129 143 153 156 157 161 136 72 80 134 18 12 106 59 88 130 132 142 144 12 19 122 126 41 20 1 14 352 336 68 75 132 82 11 297 331 324 325 334 188 227 284 117 129 178 121 96 94 123 79 359 334 269 259 100 102 31 6 148 323 158 217 273 266 323 299 297 313 14 164 198 221 225 257 278 279 296 286 274 275 285 299 308
94 73 66 75 100 127 144 149 153 159 146 85 79 104 136 60 29 127 89 73 124 129 103 118 39 344 218 147 102 4 335 341 28 34 82 186 85 137 258 304 218 300 328 310 232 303 285 141 126 196 172 119 238 249 203 62 33 340 71 104 143 264 106 150 230 336 326 298 275 283 297 270 255 260 185 199 203 210 229 256 278 302 302 288 285 290 302 309
122 83 54 57 94 123 137 148 159 162 117 76 105 147 104 108 112 132 125 76 107 143 94 114 89 15 334 84 108 61 341 12 73 46 83 142 101 189 261 300 207 302 343 316 247 63 297 263 132 149 116 84 222 239 213 130 87 358 70 106 317 330 355 11 54 337 284 294 298 311 325 222 208 219 235 218 209 216 233 247 268 275 275 280 282 291 309 317
136 96 49 55 96 111 126 140 137 119 78 64 122 138 95 142 137 125 117 100 85 63 110 145 146 129 113 4 350 99 42 53 93 67 18 63 152 187 227 245 222 350 355 342 267 49 291 294 101 126 157 247 200 206 304 50 112 216 214 179 148 93 44 189 98 35 294 276 259 302 305 270 188 181 217 222 209 209 228 245 264 278 290 294 292 298 308 313
138 102 46 74 108 110 119 108 73 61 75 80 84 95 103 132 126 114 103 101 85 63 90 112 111 127 137 133 239 174 120 86 103 109 109 179 211 265 187 186 158 357 317 247 166 244 283 306 25 131 184 220 96 41 356 358 348 307 284 264 177 126 183 230 195 61 347 286 203 246 292 284 228 159 210 221 214 218 235 247 263 285 300 305 304 301 300 300
122 97 46 83 122 126 117 80 46 46 88 84 73 92 109 112 114 120 110 96 81 77 91 88 68 89 134 112 91 177 150 96 97 134 175 198 224 12 166 170 162 143 272 308 55 51 357 302 244 149 177 10 49 56 36 2 340 318 306 325 4 111 220 263 274 162 144 297 38 50 279 273 174 167 211 228 235 243 250 252 264 291 307 310 308 299 287 283
107 96 69 100 123 120 108 81 39 41 66 78 85 91 97 95 103 127 116 71 69 88 88 76 55 72 110 132 126 166 177 112 100 83 244 219 189 150 166 171 170 163 174 238 79 109 188 297 271 224 116 109 124 129 116 350 320 270 250 238 271 298 338 348 342 116 163 188 162 164 250 253 158 172 214 233 245 251 254 256 267 291 306 311 305 284 271 272
98 84 66 90 144 153 101 110 128 82 82 109 88 74 81 72 65 98 113 48 66 95 95 89 74 78 79 78 97 115 193 205 221 356 254 203 164 152 175 178 170 177 201 236 116 168 197 50 282 279 116 161 175 163 170 144 235 248 229 153 207 82 79 100 130 100 250 209 174 209 256 250 122 142 222 234 241 249 256 266 277 288 299 302 283 263 262 270
104 78 58 62 112 175 120 128 140 130 139 127 95 70 78 67 54 71 89 86 79 87 97 94 104 100 93 86 81 66 5 1 214 200 63 173 156 152 185 205 213 206 188 128 132 160 63 44 272 294 326 305 333 340 317 75 150 218 174 179 206 167 156 183 123 160 240 189 164 220 247 274 113 183 224 230 230 250 264 272 278 288 298 289 264 259 267 280
138 96 61 55 66 89 97 118 130 125 145 146 109 85 91 80 61 74 86 93 88 91 89 94 118 109 86 80 85 68 16 11 34 129 136 173 160 142 216 224 208 171 144 123 120 121 101 92 297 289 281 302 356 349 299 42 161 191 172 191 199 193 197 172 129 203 196 140 192 230 249 299 288 247 222 229 235 250 269 281 292 303 305 282 260 263 279 294
141 105 114 76 69 77 84 102 117 119 143 158 132 150 133 104 94 87 84 101 124 121 92 82 138 143 119 145 119 93 57 1 19 83 100 158 96 70 225 209 157 174 161 132 107 101 157 183 83 257 257 265 268 236 250 271 242 215 191 191 191 193 192 191 209 198 133 148 246 245 220 260 272 270 271 275 273 274 285 297 303 304 299 280 267 266 279 295
136 117 108 121 121 81 79 113 122 115 122 130 112 137 134 121 169 165 135 124 141 158 129 86 196 206 158 160 146 129 139 12 20 112 125 170 129 104 191 223 230 217 191 163 96 37 268 228 125 202 265 264 246 242 240 237 241 226 216 205 187 186 190 203 220 194 164 216 256 63 158 235 262 278 286 283 283 287 292 295 294 289 286 280 271 265 273 286
121 117 102 105 112 104 107 132 130 115 105 98 107 148 161 156 169 173 136 123 114 234 206 196 211 177 154 165 154 145 173 184 168 190 176 156 163 173 171 219 223 206 183 152 68 4 211 182 136 175 280 281 290 336 241 227 243 247 235 222 203 200 201 211 228 211 210 251 274 298 279 272 269 267 271 277 282 284 285 284 279 275 280 278 269 266 270 275
133 130 125 111 96 91 103 125 127 109 84 63 112 166 170 161 166 172 167 163 152 195 210 225 169 146 139 159 150 148 203 181 74 227 177 151 160 205 202 203 164 154 170 158 92 166 208 123 119 151 281 283 315 18 273 216 241 253 248 229 208 209 214 224 239 231 231 259 275 279 280 277 268 259 263 273 279 279 274 269 265 269 278 273 265 265 265 263
133 137 139 122 97 70 98 119 114 97 103 51 149 166 177 186 174 151 146 190 184 171 199 181 144 132 83 148 174 316 194 173 16 223 178 161 144 187 190 181 159 150 160 172 153 176 183 130 117 137 287 278 58 20 323 307 272 261 264 238 204 198 208 218 222 211 209 221 228 247 255 258 264 268 264 264 264 259 256 257 261 270 275 268 262 261 260 255
130 135 141 125 94 46 133 119 62 105 140 134 131 157 181 194 172 153 132 225 204 172 187 171 148 138 96 188 188 150 131 138 79 113 154 141 96 129 128 142 159 156 154 159 146 214 183 169 144 157 277 259 196 43 307 308 288 261 264 218 188 188 205 221 230 221 213 206 179 207 231 229 229 301 250 246 244 245 251 256 265 275 277 267 260 259 258 252